Content
SEND FEEDBACK

Daily
Averages
Monthly
Summary
United States of America

BIG WATER, UTAH


Home > North America > United States > Utah
Elevation: 4166 feet     Latitude: 37 05N     Longitude: 111 40W

WEATHER
 
SELECT A DAY
Number of Records: 197,737;   Date Range: 1/1/95 - 11/19/14
 
SHARE

PRINT THIS DATA

[ ← Previous Day ]
WEATHER ALMANAC - JUNE 17, 2014
[ Next Day → ]
[ °C ]   °F
Weather ElementAverageHighLow
Temperature80.8 °F90 °F (2:53 pm)69.1 °F (4:53 am)
Dewpoint22.5 °F26.1 °F (11:53 pm)19.9 °F (4:53 pm)
Humidity12 %17 % (3:53 am)8 % (3:53 pm)
Barometer29.58 in29.62 in (5:53 am)29.52 in (1:53 pm)
Wind Speed13.1 mph21.9 mph (2:53 pm)
Wind Gust41.4 mph (4:53 pm)
Weather ElementAverage
Visibility10 mi
Wind DirectionSSW (203.5 °)

Weather ElementTotal
Precipitation---
Cooling Degree Days14.6 (Base 65)
Growing Degree Days29.6 (Base 50)
Averaged from 23 records on June 17, 2014
WEATHER CONDITIONS BREAKOUT
WIND DIRECTION BREAKOUT
WEATHER BY HOUR - JUNE 17, 2014
[ °C ]   °F
Local TimeTemperatureDewpointHumidityBarometerVisibilityWind DirectionWind SpeedGust SpeedPrecipitationEventsConditions
1:53 AM73.9 °F21.0 °F14 %29.59 in10.0 miSouth (170°)9.2 mphClear
2:53 AM73.0 °F21.9 °F15 %29.59 in10.0 miSouth (180°)12.7 mphClear
3:53 AM70.0 °F23.0 °F17 %29.60 in10.0 miSSE (160°)12.7 mph20.7 mphClear
4:53 AM69.1 °F21.9 °F17 %29.61 in10.0 miSE (140°)10.4 mphClear
5:53 AM70.0 °F21.0 °F16 %29.62 in10.0 miSouth (190°)4.6 mphClear
6:53 AM75.0 °F23.0 °F14 %29.62 in10.0 miSSW (200°)6.9 mphClear
7:53 AM78.1 °F23.0 °F13 %29.62 in10.0 miSSW (200°)10.4 mph20.7 mphClear
8:53 AM80.1 °F21.9 °F12 %29.62 in10.0 miSW (230°)9.2 mph19.6 mphClear
9:53 AM82.0 °F23.0 °F11 %29.60 in10.0 miWSW (240°)15.0 mph25.3 mphClear
10:53 AM84.9 °F23.0 °F10 %29.59 in10.0 miSSW (200°)20.7 mph32.2 mphClear
11:53 AM88.0 °F23.0 °F9 %29.56 in10.0 miSSW (200°)15.0 mph26.5 mphClear
12:53 PM89.1 °F21.9 °F9 %29.54 in10.0 miSW (220°)17.3 mph32.2 mphClear
1:53 PM89.1 °F23.0 °F9 %29.52 in10.0 miSSW (210°)20.7 mph35.7 mphClear
2:53 PM90.0 °F23.0 °F9 %29.52 in10.0 miSSW (210°)21.9 mph33.4 mphClear
3:53 PM90.0 °F21.0 °F8 %29.52 in10.0 miSW (220°)13.8 mph34.5 mphClear
4:53 PM88.0 °F19.9 °F8 %29.53 in10.0 miSW (220°)17.3 mph41.4 mphClear
5:53 PM87.1 °F19.9 °F8 %29.54 in10.0 miSW (230°)15.0 mph34.5 mphClear
6:53 PM84.9 °F21.0 °F10 %29.55 in10.0 miSW (220°)12.7 mph26.5 mphClear
7:53 PM82.9 °F21.9 °F11 %29.56 in10.0 miSW (220°)15.0 mph25.3 mphClear
8:53 PM80.1 °F24.1 °F13 %29.59 in10.0 miSSW (200°)10.4 mph18.4 mphClear
9:53 PM79.0 °F25.0 °F14 %29.61 in10.0 miSSW (210°)10.4 mph21.9 mphClear
10:53 PM78.1 °F25.0 °F14 %29.61 in10.0 miSSW (210°)11.5 mph16.1 mphClear
11:53 PM75.0 °F26.1 °F16 %29.62 in10.0 miSSW (200°)8.1 mphClear
Hourly data recorded from KPGA, located miles away from Big Water, Utah







STORIES FROM OUR PARTNERS